EJA115 KPWM-KDCA

Flight info

Callsign EJA115
Flight time N/A
Altitude 43000
Route NUBLE4 NELIE Q75 MXE CLIPR3
Aircraft C25C/M-SDE2E3FGHRWXY/LB1

Departure

Time 2026-05-04 21:10
Airport Portland International Jetport (KPWM)

Arrival

Time N/A
Airport Ronald Reagan Washington National Airport (KDCA)
Time Latitude Longitude Altitude Speed Heading
2026-05-04 20:50 43.64887 -70.30236 48 ft 0 kts 349°
2026-05-04 21:01 43.64878 -70.30233 51 ft 2 kts 345°
2026-05-04 21:01 43.64863 -70.30225 46 ft 2 kts 334°
2026-05-04 21:01 43.64851 -70.30211 48 ft 2 kts 292°
2026-05-04 21:01 43.64850 -70.30195 49 ft 0 kts 257°
2026-05-04 21:02 43.64850 -70.30194 49 ft 0 kts 257°
2026-05-04 21:04 43.64850 -70.30196 49 ft 0 kts 255°
2026-05-04 21:05 43.64845 -70.30219 50 ft 7 kts 251°
2026-05-04 21:05 43.64822 -70.30322 53 ft 13 kts 259°
2026-05-04 21:05 43.64805 -70.30427 51 ft 10 kts 240°
2026-05-04 21:05 43.64738 -70.30437 53 ft 12 kts 163°
2026-05-04 21:06 43.64634 -70.30394 50 ft 17 kts 164°
2026-05-04 21:06 43.64544 -70.30302 50 ft 18 kts 99°
2026-05-04 21:06 43.64531 -70.30130 49 ft 17 kts 94°
2026-05-04 21:06 43.64527 -70.30056 48 ft 0 kts 96°
2026-05-04 21:07 43.64522 -70.29995 46 ft 8 kts 95°
2026-05-04 21:07 43.64519 -70.29969 45 ft 0 kts 102°
2026-05-04 21:07 43.64517 -70.29960 45 ft 4 kts 109°
2026-05-04 21:07 43.64490 -70.29922 42 ft 0 kts 160°
2026-05-04 21:08 43.64487 -70.29921 42 ft 4 kts 162°
2026-05-04 21:08 43.64434 -70.29930 41 ft 10 kts 212°
2026-05-04 21:08 43.64410 -70.29996 42 ft 0 kts 276°
2026-05-04 21:10 43.64440 -70.30385 50 ft 94 kts 277°
2026-05-04 21:10 43.64562 -70.31609 534 ft 151 kts 278°
2026-05-04 21:10 43.64726 -70.33147 1216 ft 169 kts 276°
2026-05-04 21:10 43.64957 -70.34865 1114 ft 204 kts 276°
2026-05-04 21:11 43.65200 -70.36527 2288 ft 164 kts 281°
2026-05-04 21:11 43.65484 -70.38116 2996 ft 179 kts 281°
2026-05-04 21:11 43.65752 -70.39850 3639 ft 192 kts 278°
2026-05-04 21:11 43.65975 -70.41668 4396 ft 189 kts 277°
2026-05-04 21:12 43.66032 -70.43434 4920 ft 183 kts 261°
2026-05-04 21:12 43.65497 -70.45082 5452 ft 195 kts 239°
2026-05-04 21:12 43.64453 -70.46462 6240 ft 234 kts 222°
2026-05-04 21:12 43.63477 -70.47318 6539 ft 259 kts 215°
2026-05-04 21:13 43.61374 -70.48903 8233 ft 257 kts 218°
2026-05-04 21:13 43.59906 -70.50330 9339 ft 261 kts 223°
2026-05-04 21:13 43.58382 -70.51771 10402 ft 269 kts 219°
2026-05-04 21:13 43.57330 -70.52695 11108 ft 272 kts 219°
2026-05-04 21:14 43.55736 -70.54135 12145 ft 275 kts 219°
2026-05-04 21:14 43.54128 -70.55565 12250 ft 276 kts 220°
2026-05-04 21:14 43.52466 -70.57005 11993 ft 290 kts 212°
2026-05-04 21:14 43.50443 -70.57775 11616 ft 308 kts 200°
2026-05-04 21:15 43.48399 -70.58672 11265 ft 308 kts 206°
2026-05-04 21:15 43.46356 -70.59567 10916 ft 307 kts 202°
2026-05-04 21:15 43.44313 -70.60370 10576 ft 305 kts 202°
2026-05-04 21:15 43.42281 -70.61196 10234 ft 303 kts 202°
2026-05-04 21:16 43.40276 -70.62013 10077 ft 295 kts 203°
2026-05-04 21:16 43.38341 -70.62809 10053 ft 287 kts 203°
2026-05-04 21:16 43.36443 -70.63584 10033 ft 282 kts 203°
2026-05-04 21:16 43.34568 -70.64352 10019 ft 280 kts 203°
2026-05-04 21:17 43.32711 -70.65107 10124 ft 272 kts 204°
2026-05-04 21:17 43.30907 -70.65835 10537 ft 256 kts 203°
2026-05-04 21:17 43.29288 -70.66494 10927 ft 242 kts 204°
2026-05-04 21:17 43.27710 -70.67134 11328 ft 233 kts 204°
2026-05-04 21:18 43.26027 -70.67859 11760 ft 279 kts 204°
2026-05-04 21:18 43.23980 -70.68704 12235 ft 327 kts 202°
2026-05-04 21:18 43.21682 -70.69620 12717 ft 360 kts 201°
2026-05-04 21:18 43.19338 -70.70534 13198 ft 339 kts 201°
2026-05-04 21:19 43.17146 -70.71421 13656 ft 318 kts 203°
2026-05-04 21:19 43.15242 -70.72620 14051 ft 294 kts 217°
2026-05-04 21:19 43.13461 -70.73950 14459 ft 283 kts 213°
2026-05-04 21:19 43.11738 -70.75143 14864 ft 271 kts 215°
2026-05-04 21:20 43.10095 -70.76330 15239 ft 263 kts 214°
2026-05-04 21:20 43.08473 -70.77508 15354 ft 266 kts 215°
2026-05-04 21:20 43.06815 -70.78699 15381 ft 272 kts 214°